This demonstration page uses our WeatherBlox Daily Observations layout. Learn more.

Left ArrowRight Arrow

Hourly Observations for April 26, 2018

Temp ( °F °C ) Dew Point ( °F °C ) Humidity (%) Winds ( mph kmh ) Pressure ( in mb ) Visibility ( mi km ) Precip ( " mm )
12:51 am 00:51 Clear 68 20 17 -8.3 14 14 NNW 7 11 29.80 1009 10 16 0.00 0.00
1:51 am 01:51 Clear 65 18.3 16 -8.9 15 15 Calm 29.79 1009 10 16 0.00 0.00
2:51 am 02:51 Clear 60 15.6 16 -8.9 18 18 SE 3 6 29.80 1009 10 16 0.00 0.00
3:51 am 03:51 Clear 59 15 16 -8.9 18 18 ESE 6 9 29.81 1010 10 16 0.00 0.00
4:51 am 04:51 Clear 58 14.4 16 -8.9 19 19 Calm 29.82 1010 10 16 0.00 0.00
5:51 am 05:51 Sunny 53 11.7 15 -9.4 22 22 NE 5 7 29.84 1011 10 16 0.00 0.00
6:51 am 06:51 Sunny 63 17.2 17 -8.3 17 17 Calm 29.85 1011 10 16 0.00 0.00
7:51 am 07:51 Sunny 74 23.3 19 -7.2 12 12 Calm 29.84 1011 10 16 0.00 0.00
8:51 am 08:51 Sunny 78 25.6 21 -6.1 12 12 SE 14 22 29.84 1010 10 16 0.00 0.00
9:51 am 09:51 Sunny 81 27.2 21 -6.1 11 11 VRB 3 6 29.83 1010 10 16 0.00 0.00
10:51 am 10:51 Sunny 85 29.4 18 -7.8 8 8 NNW 5 7 29.82 1010 10 16 0.00 0.00
11:51 am 11:51 Sunny 86 30 18 -7.8 8 8 Calm 29.79 1009 10 16 0.00 0.00
12:51 pm 12:51 Sunny 88 31.1 16 -8.9 7 7 Calm 29.76 1008 10 16 0.00 0.00
1:51 pm 13:51 Sunny 90 32.2 15 -9.4 6 6 Calm 29.74 1007 10 16 0.00 0.00
2:51 pm 14:51 Sunny 91 32.8 12 -11.1 5 5 undefined N/A 29.73 1007 10 16 0.00 0.00
3:51 pm 15:51 Sunny 91 32.8 15 -9.4 6 6 W 5 7 29.72 1006 10 16 0.00 0.00
4:51 pm 16:51 Sunny 90 32.2 11 -11.7 5 5 NW 8 13 29.71 1006 10 16 0.00 0.00
5:51 pm 17:51 Sunny 89 31.7 21 -6.1 8 8 WNW 17 28 29.72 1007 10 16 0.00 0.00
6:51 pm 18:51 Sunny 84 28.9 23 -5 10 10 NW 15 24 29.73 1007 10 16 0.00 0.00
7:51 pm 19:51 Clear 82 27.8 23 -5 11 11 NW 10 17 29.72 1007 10 16 0.00 0.00
8:51 pm 20:51 Clear 76 24.4 23 -5 14 14 WSW 9 15 29.75 1008 10 16 0.00 0.00
9:51 pm 21:51 Clear 74 23.3 25 -3.9 16 16 WNW 9 15 29.76 1008 10 16 0.00 0.00
10:51 pm 22:51 Clear 69 20.6 23 -5 17 17 WNW 8 13 29.78 1008 10 16 0.00 0.00
11:51 pm 23:51 Clear 71 21.7 23 -5 16 16 NW 6 9 29.77 1008 10 16 0.00 0.00

Powered by AerisWeather